Погода в Ловече

Болгария     43°08′23″N   24°42′56″E
темп.,
°C
ветер,
м/с
пор.,
м/с
влажн.,
%
обл.,
%
осадки,
мм/ч
давл.,
гПа
погр.,
м
23 апреля, пт
пт2300:00+11юз3270100 0.0 101823
03:00+12з4965100 0.0 1018248
06:00+10зсз3583100 0.1 1019144
09:00+10з1394100 1.3 1020158
12:00+10зюз3693100 2.3 1021316
15:00+15з677096 2.6 10201347
18:00+14зсз6963100 0.4 10201175
21:00+10зюз486858 0.4 1022180
24 апреля, сб
сб2400:00+10з51059100 0.0 1023620
03:00+8з5116185 0.0 1023385
06:00+6зюз4970100 0.0 1023203
09:00+9з6965100 0.0 1023548
12:00+12зсз5564100 0.0 10231072
15:00+14зсз3356100 0.1 10211593
18:00+14зсз3360100 0.1 10211216
21:00+9з2277100 0.1 102120
25 апреля, вс
вс2500:00+8юз22826 0.0 102113
03:00+7зюз228733 0.0 102115
06:00+6зюз228913 0.0 102112
09:00+10зсз227743 0.0 1021299
12:00+13ссв226862 0.3 1020924
15:00+15в115860 0.4 10181358
18:00+14з116267 0.2 1018348
21:00+11юз226963 0.2 101914
26 апреля, пн
пн2600:00+8юз32762 0.0 101924
03:00+8ююз337318 0.0 101924
06:00+7юз22709 0.0 101921
09:00+12зюз23644 0.0 1019266
12:00+16з23510 0.0 10191363
15:00+18сз124698 0.0 10171552
18:00+18в235181 0.0 10141196
21:00+13вюв3370100 0.0 101537
27 апреля, вт
вт2700:00+11ю3472100 0.0 101469
03:00+10ю337465 0.0 101330
06:00+11ю2270100 0.0 101332
09:00+14ююв226895 0.0 1012167
12:00+18юв2456100 0.0 1011820
15:00+18вюв2362100 0.0 1009541
18:00+18в2367100 0.0 1008425
21:00+14юв2275100 0.0 100822